Regional Weather Roundup
Issued by NWS

Home | Current Version | Previous Version | Text Only | Print | Product List | Glossary Off
Versions: 1 2 3 4 5 6 7 8 9 10 11 12 13 14 15 16 17 18 19 20 21 22 23 24 25 26 27 28 29 30 31 32 33 34 35 36 37 38 39 40 41 42 43 44 45 46 47 48 49 50

000
ASUS45 KTFX 240819
RWRMT
MONTANA HOURLY WEATHER ROUNDUP
NATIONAL WEATHER SERVICE GREAT FALLS MT
219 AM MDT THU APR 24 2014

NOTE: "FAIR" INDICATES FEW OR NO CLOUDS BELOW 12000 FEET WITH NO
SIGNIFICANT WEATHER AND/OR OBSTRUCTIONS TO VISIBILITY.

* THESE STATIONS ARE NOT UNDER NWS QUALITY CONTROL. THEY DO NOT
   REPORT WEATHER SUCH AS PRECIPITATION OR FOG.

MTZ001>007-043-240900-
WEST OF THE DIVIDE
CITY           SKY/WX    TMP DP  RH WIND       PRES   REMARKS
KALISPELL      CLOUDY    39  32  76 S7        29.85S WCI  34
MISSOULA       CLOUDY    37  36  96 W5        29.91S WCI  33
BUTTE          CLOUDY    36  23  59 CALM      29.87S
MULLAN PASS    LGT SNOW  28  27  96 VRB5      29.80F VSB 3/4  WCI  22
* ESSEX        N/A       34  26  73 N/A        N/A
* LINCOLN      N/A       32  31  96 S5G11      N/A   WCI  27
* LOOKOUT PASS N/A       32  31  96 SE1        N/A
* PLAINS APT   MOCLDY    39  32  76 CALM      29.90R
* POLSON       N/A       34  31  89 SE1        N/A
* RONAN APT    CLOUDY    39  34  82 SE8        N/A   WCI  33
* SEELEY LAKE  N/A       33  32  96 N/A        N/A
* THOMP F APT  MOCLDY    28  19  69 NE1G10     N/A
$$

MTZ008-052>055-240900-
SOUTHWEST MONTANA
CITY           SKY/WX    TMP DP  RH WIND       PRES   REMARKS
BOZEMAN        CLOUDY    45  19  35 SW15      29.87R
DILLON         CLOUDY    37  23  57 S13       29.89F WCI  29
W YELLOWSTONE  N/A       28  23  81 SW3G10     N/A
* THREE FORKS  MOCLDY    41  30  65 W5         N/A
* BOULDER HILL N/A       35  21  57 SW11       N/A   WCI  27
* MONIDA PASS  N/A       28  13  53 SE12       N/A   WCI  18
* RAYNOLDS PAS N/A       25   8  48 S12G17     N/A   WCI  14
* WHITEHALL    N/A       40  24  53 SW11G21    N/A   WCI  33
* WISE RIVER   N/A       36  23  59 W14G22     N/A   WCI  27
$$

MTZ009>010-012-014-046-048-049-054-240900-
EAST SLOPES AND CENTRAL MONTANA
CITY           SKY/WX    TMP DP  RH WIND       PRES   REMARKS
CUT BANK       PTCLDY    36  19  50 W22       29.73R WCI  25
GREAT FALLS    PTCLDY    36  30  79 SW18G24   29.77R WCI  26
HELENA         CLOUDY    37  36  96 E6        29.86S WCI  32
MALMSTROM AFB  PTCLDY    39  28  65 SW22G29   29.74R WCI  29
* CONRAD       CLEAR     28  23  81 N/A        N/A
* DEARBORN     N/A       41  29  62 S8G22      N/A
* EAST GLACIER N/A       34  18  52 W20G32     N/A   WCI  23
* MONARCH      N/A       34  16  48 SW20G29    N/A   WCI  23
* PENDROY      N/A       37  19  48 W22G35     N/A   WCI  26
* ROGERS PASS  N/A       30  27  89 E9G14      N/A   WCI  22
* SAINT MARY   N/A       35  20  54 S9G20      N/A   WCI  28
* SWEET GRASS  N/A       35  21  57 SW19G24    N/A   WCI  24
* WHITE SULPH  N/A       33  29  85 SW4        N/A
$$

MTZ011-013-016-021-035-040-045-047-050-051-240900-
NORTH CENTRAL MONTANA
CITY           SKY/WX    TMP DP  RH WIND       PRES   REMARKS
HAVRE          CLEAR     37  28  70 SW20G30   29.71R WCI  27
LEWISTOWN      PTCLDY    34  27  76 SW10      29.77S WCI  26
* CHINOOK      CLEAR     43  27  53 SW17G22   29.71R
* FORT BENTON  CLEAR     36  28  73 SW7       29.78R WCI  30
* CHESTER      N/A       32  23  69 W6G11      N/A   WCI  26
* DENTON       N/A       30  24  78 SW8        N/A   WCI  22
* GEYSER       N/A       35  21  57 W10G16     N/A   WCI  27
* JUDITH GAP   N/A       36  26  67 SW20G31    N/A   WCI  25
* LOMA         N/A       38  28  67 SW9        N/A   WCI  32
$$

MTZ017>020-022>027-061-062-240900-
NORTHEAST MONTANA
CITY           SKY/WX    TMP DP  RH WIND       PRES   REMARKS
GLASGOW        PTCLDY    39  28  65 W13       29.69S WCI  31
GLENDIVE       CLEAR     39  21  48 W10       29.75R WCI  32
JORDAN         CLEAR     41  25  53 W14       29.73S
SIDNEY         CLEAR     43  23  45 W14G20    29.71R
WOLF POINT     CLEAR     36  25  64 SW8       29.70R WCI  30
* BEAVER HILL  N/A       39  21  48 S9         N/A   WCI  33
* CIRCLE       N/A       40  26  57 W7         N/A   WCI  35
* LINDSAY DVD  N/A       39  21  48 SW14G19    N/A   WCI  31
* NAVAJO       N/A       38  27  65 W16        N/A   WCI  29
* SACO         N/A       41  25  53 SW14G19    N/A
* SCOBEY APT   PTCLDY    39  23  53 SW15G20   29.64R WCI  31
$$

MTZ028>042-056>058-240900-
SOUTHCENTRAL AND SOUTHEAST MONTANA
CITY           SKY/WX    TMP DP  RH WIND       PRES   REMARKS
BAKER          CLEAR     37  21  52 W10       29.78R WCI  30
BILLINGS       MOCLDY    41  25  53 SW13      29.81F
LIVINGSTON     CLOUDY    46  18  33 SW23G37   29.82S
MILES CITY     PTCLDY    41  25  53 W6        29.78R
* EKALAKA APT  PTCLDY    41  18  39 SW6       29.80R
* LAUREL APT   PTCLDY    36  14  40 N/A        N/A
* ROUNDUP APT  MOCLDY    43  25  49 SW18G25    N/A
* HYSHAM       N/A       42  21  43 W4G9       N/A
* LAME DEER    N/A       39  22  51 SW9        N/A   WCI  33
* REED POINT   N/A       36  27  70 N/A        N/A
* ROSCOE HILL  N/A       40  12  32 SW8G22     N/A   WCI  35
$$

REGIONAL REPORTS...DAKOTAS
CITY           SKY/WX    TMP DP  RH WIND       PRES   REMARKS
WILLISTON      CLEAR     43  27  53 W16       29.66R
DICKINSON      CLEAR     37  23  57 W12       29.71R WCI  29
CROSBY         CLEAR     36  36 100 S9        29.63S WCI  29
TIOGA          FAIR      36  36 100 SW12      29.67F WCI  28
WATFORD CITY   CLEAR     34  25  70 SW10      29.68R WCI  26
BISMARCK       MOCLDY    39 N/A N/A CALM      29.74R
GRAND FORKS    FOG       37  37 100 SE13      29.79F WCI  29
FARGO          CLOUDY    43  37  79 SE10      29.78F
BUFFALO SD     CLEAR     32  23  69 W13       29.75R WCI  22
RAPID CITY     MOCLDY    37  25  62 NW10      29.83F WCI  30
$$

REGIONAL REPORTS...WYOMING/IDAHO/WASHINGTON
CITY           SKY/WX    TMP DP  RH WIND       PRES   REMARKS
GILLETTE       CLEAR     34  25  70 SW12      29.88R WCI  25
SHERIDAN       CLEAR     36  19  50 VRB6      29.84F WCI  31
CODY           PTCLDY    41  19  41 SW12G18   29.88S
YELLOWSTONE LA MOCLDY    25  19  78 VRB3      29.99R
SALMON         CLOUDY    45  21  38 SW14      29.90F
MULLAN PASS    LGT SNOW  28  27  96 VRB5      29.80S VSB 3/4  WCI  22
SAND POINT     CLOUDY    39  39 100 N6        29.84F WCI  35
SPOKANE        LGT RAIN  41  39  93 S5        29.81F
$$

REGIONAL REPORTS...ALBERTA
CITY           SKY/WX    TMP DP  RH WIND       PRES   REMARKS
CALGARY        N/A       34  28  79 N3        29.67R
LETHBRIDGE     CLEAR     36  23  59 W13       29.70R WCI  27
MEDICINE HAT   LGT RAIN  41  37  86 W10       29.70R
EDMONTON       MOCLDY    36  30  79 NW13G24   29.62S WCI  27
WATERTON GATE  N/A       37  18  46 SW10G17    N/A   WCI  30
CARDSTON       N/A       37  19  48 W9         N/A   WCI  30
MILK RIVER     N/A       32  23  69 W13        N/A   WCI  22
$$

REGIONAL REPORTS...SASKATCHEWAN
CITY           SKY/WX    TMP DP  RH WIND       PRES   REMARKS
SWIFT CURRENT  CLOUDY    39  36  89 W17G24    29.61R WCI  30
REGINA         LGT RAIN  43  41  93 SW8       29.58R
VAL MARIE      N/A       37  27  67 W17        N/A   WCI  27
ASSINIBOIA     N/A       39  34  82 W10        N/A   WCI  32
CORONACH       N/A       39  28  65 W16        N/A   WCI  30

$$




USA.gov is the U.S. government's official web portal to all federal, state and local government web resources and services.